Tracking 29892 objects as of 21-Nov-2024
HD Live streaming from Space Station
objects crossing your sky now

STARLINK-1750

Track STARLINK-1750 now!
10-day predictions
STARLINK-1750 is classified as:


NORAD ID: 46337
Int'l Code: 2020-062N
Perigee: 553.1 km
Apogee: 555.5 km
Inclination: 53.1 °
Period: 95.6 minutes
Semi major axis: 6925 km
RCS: Unknown
Launch date: September 3, 2020
Source: United States (US)
Launch site: AIR FORCE EASTERN TEST RANGE (AFETR)
Your satellite tracking list
Your tracking list is empty




NASA's NSSDC Master Catalog

Two Line Element Set (TLE):
1 46337U 20062N   24325.38999433  .00011296  00000-0  77559-3 0  9992
2 46337  53.0551 325.8336 0001677 100.4913 259.6265 15.06419307233103
Source of the keplerian elements: AFSPC